{"data":{"norad_id":66382,"epoch":"2026-09-20T13:48:17.395776Z","epoch_age_seconds":86923,"freshness":"FRESH","line1":"1 66382U 25257C   26263.57520134  .00024463  00000+0  73219-3 0  9995","line2":"2 66382  53.1612  29.5164 0000687  87.7288 272.3793 15.34425533 49600","mean_motion":15.34425533,"eccentricity":6.87e-5,"inclination_deg":53.1612,"raan_deg":29.5164,"arg_perigee_deg":87.7288,"mean_anomaly_deg":272.3793,"bstar":0.00073219,"rev_number":4960,"period_min":93.846196444908,"perigee_km":462.15739129164,"apogee_km":463.09731231358,"semimajor_km":6840.7643518026,"source":"CELESTRAK","updated_at":"2026-09-21T09:00:35.885321Z"}}